QPF
0.00 0.00 0.00 0.00 0.00 0.00 0.00 0.00 0.00 0.00 0.00 0.00 0.00 0.00 0.00 0.00 0.00 0.00 0.00 0.00 0.00 0.00 0.00 0.00 0.00 0.00 0.00 0.00 0.00 0.00 0.03 0.18 0.06 0.03 0.08 0.00 0.00 0.00 0.00 0.00 0.00 0.00 0.00 0.01 0.00
0.00 0.00 0.00 0.00 0.00 0.00 0.00 0.00 0.00 0.00 0.00 0.00 0.00 0.00 0.00 0.00 0.00 0.00 0.00 0.00 0.00 0.00 0.00 0.00 0.00 0.00 0.00 0.00 0.00 0.00 0.10 0.75 0.42 0.01 0.03 0.00 0.00 0.00 0.00 0.01 0.00 0.00 0.00 0.01 0.00
0.00 0.00 0.00 0.00 0.00 0.00 0.00 0.00 0.00 0.00 0.00 0.00 0.00 0.00 0.00 0.00 0.00 0.00 0.00 0.00 0.00 0.00 0.00 0.00 0.00 0.00 0.00 0.00 0.01 0.01 0.11 0.48 0.14 0.00 0.00 0.01 0.00 0.00 0.00 0.00 0.01 0.05 0.00 0.03 0.00
0.00 0.00 0.00 0.00 0.00 0.00 0.00 0.00 0.00 0.00 0.00 0.00 0.00 0.00 0.00 0.00 0.00 0.00 0.00 0.00 0.00 0.00 0.00 0.00 0.00 0.00 0.01 0.02 0.01 0.01 0.01 0.08 0.07 0.00 0.00 0.01 0.00 0.00 0.00 0.00 0.00 0.00 0.00 0.03 0.01
0.00 0.00 0.00 0.00 0.00 0.00 0.00 0.00 0.00 0.00 0.00 0.00 0.00 0.00 0.00 0.00 0.00 0.00 0.00 0.00 0.00 0.00 0.00 0.00 0.00 0.00 0.01 0.00 0.01 0.03 0.02 0.00 0.00 0.00 0.01 0.00 0.00 0.00 0.00 0.00 0.00 0.00 0.00 0.01 0.03
0.00 0.00 0.00 0.00 0.00 0.00 0.00 0.00 0.00 0.00 0.00 0.00 0.00 0.00 0.00 0.00 0.00 0.00 0.00 0.00 0.00 0.00 0.00 0.00 0.00 0.00 0.00 0.01 0.05 0.16 0.07 0.00 0.00 0.00 0.00 0.00 0.00 0.00 0.00 0.00 0.00 0.00 0.00 0.00 0.01
0.00 0.00 0.00 0.00 0.00 0.00 0.00 0.00 0.00 0.00 0.00 0.00 0.00 0.00 0.00 0.00 0.00 0.00 0.00 0.00 0.00 0.00 0.00 0.00 0.00 0.00 0.00 0.02 0.01 0.01 0.01 0.00 0.00 0.00 0.00 0.00 0.00 0.00 0.00 0.00 0.00 0.00 0.00 0.00 0.01
0.00 0.00 0.00 0.00 0.00 0.00 0.00 0.00 0.00 0.00 0.00 0.00 0.00 0.00 0.00 0.00 0.00 0.00 0.00 0.00 0.00 0.00 0.00 0.00 0.00 0.00 0.01 0.00 0.01 0.02 0.00 0.00 0.00 0.00 0.00 0.00 0.01 0.00 0.00 0.00 0.00 0.00 0.00 0.00 0.02
0.00 0.00 0.00 0.00 0.00 0.00 0.00 0.00 0.00 0.00 0.00 0.00 0.00 0.00 0.00 0.00 0.00 0.00 0.00 0.00 0.00 0.00 0.00 0.00 0.00 0.04 0.02 0.00 0.01 0.07 0.29 0.06 0.06 0.02 0.00 0.00 0.01 0.00 0.00 0.00 0.00 0.00 0.00 0.06 0.06
0.00 0.00 0.00 0.00 0.00 0.00 0.00 0.00 0.00 0.00 0.00 0.00 0.00 0.00 0.00 0.00 0.00 0.00 0.00 0.00 0.00 0.00 0.02 0.08 0.15 0.20 0.15 0.02 0.02 0.01 0.07 0.03 0.07 0.08 0.00 0.00 0.00 0.00 0.00 0.00 0.00 0.00 0.00 0.00 0.01
0.00 0.00 0.00 0.00 0.00 0.00 0.00 0.00 0.00 0.00 0.00 0.00 0.00 0.00 0.00 0.00 0.00 0.00 0.00 0.00 0.00 0.00 0.18 0.48 0.47 0.26 0.09 0.01 0.01 0.00 0.00 0.01 0.01 0.00 0.00 0.00 0.00 0.00 0.00 0.00 0.00 0.00 0.00 0.00 0.00
0.00 0.00 0.00 0.00 0.00 0.00 0.00 0.00 0.00 0.00 0.00 0.00 0.00 0.00 0.00 0.00 0.00 0.00 0.00 0.00 0.01 0.03 0.25 0.83 0.81 0.14 0.01 0.01 0.03 0.02 0.03 0.05 0.01 0.00 0.00 0.00 0.00 0.00 0.00 0.00 0.00 0.00 0.00 0.00 0.00
0.00 0.00 0.00 0.00 0.00 0.00 0.00 0.00 0.00 0.00 0.00 0.00 0.00 0.00 0.00 0.00 0.00 0.00 0.00 0.00 0.00 0.02 0.13 0.73 0.39 0.02 0.00 0.04 0.00 0.06 0.03 0.04 0.02 0.00 0.00 0.00 0.00 0.00 0.00 0.00 0.00 0.00 0.00 0.00 0.00
0.00 0.00 0.00 0.00 0.00 0.00 0.00 0.00 0.00 0.00 0.00 0.00 0.00 0.00 0.00 0.00 0.00 0.00 0.00 0.00 0.00 0.00 0.03 0.08 0.08 0.03 0.15 0.01 0.00 0.08 0.00 0.00 0.00 0.01 0.04 0.01 0.13 0.00 0.00 0.00 0.00 0.00 0.00 0.00 0.00
0.00 0.00 0.00 0.00 0.00 0.00 0.00 0.00 0.00 0.00 0.00 0.00 0.00 0.00 0.00 0.00 0.00 0.00 0.00 0.00 0.00 0.00 0.01 0.14 0.02 0.02 0.00 0.00 0.00 0.00 0.00 0.00 0.00 0.04 0.05 0.00 0.13 0.02 0.00 0.00 0.00 0.00 0.00 0.00 0.00
0.00 0.00 0.00 0.00 0.00 0.00 0.00 0.00 0.00 0.00 0.00 0.00 0.00 0.00 0.00 0.00 0.00 0.00 0.00 0.00 0.00 0.00 0.00 0.00 0.01 0.01 0.01 0.00 0.00 0.00 0.00 0.01 0.00 0.03 0.05 0.01 0.12 0.05 0.00 0.00 0.00 0.00 0.00 0.00 0.00
0.00 0.00 0.00 0.00 0.00 0.00 0.00 0.00 0.01 0.00 0.00 0.00 0.00 0.00 0.00 0.00 0.00 0.00 0.00 0.00 0.00 0.00 0.00 0.00 0.00 0.01 0.00 0.00 0.00 0.00 0.05 0.28 0.12 0.03 0.00 0.00 0.08 0.02 0.00 0.00 0.00 0.00 0.00 0.00 0.00
0.00 0.00 0.00 0.00 0.00 0.00 0.00 0.00 0.00 0.00 0.00 0.00 0.00 0.00 0.00 0.00 0.00 0.00 0.00 0.00 0.00 0.00 0.01 0.00 0.00 0.01 0.02 0.00 0.01 0.00 0.08 0.19 0.29 0.11 0.03 0.01 0.00 0.00 0.00 0.00 0.00 0.00 0.00 0.00 0.00
0.00 0.00 0.00 0.00 0.00 0.00 0.00 0.00 0.00 0.00 0.00 0.00 0.00 0.00 0.00 0.00 0.00 0.00 0.00 0.00 0.00 0.00 0.00 0.00 0.02 0.01 0.01 0.00 0.00 0.00 0.00 0.11 0.02 0.07 0.31 0.13 0.01 0.00 0.00 0.00 0.00 0.00 0.00 0.00 0.00
0.00 0.00 0.00 0.00 0.00 0.00 0.00 0.00 0.00 0.00 0.00 0.00 0.00 0.00 0.00 0.00 0.00 0.00 0.00 0.00 0.00 0.00 0.00 0.00 0.00 0.00 0.00 0.00 0.00 0.00 0.00 0.00 0.01 0.06 0.04 0.02 0.04 0.00 0.00 0.00 0.00 0.00 0.00 0.00 0.00
0.00 0.00 0.00 0.00 0.00 0.00 0.00 0.00 0.00 0.00 0.00 0.00 0.00 0.00 0.00 0.00 0.00 0.00 0.00 0.00 0.00 0.00 0.00 0.00 0.00 0.00 0.00 0.00 0.00 0.00 0.01 0.00 0.00 0.00 0.12 0.13 0.01 0.03 0.01 0.00 0.00 0.00 0.00 0.00 0.00
0.00 0.00 0.00 0.00 0.00 0.00 0.00 0.00 0.00 0.00 0.00 0.00 0.00 0.00 0.00 0.00 0.00 0.00 0.00 0.00 0.00 0.00 0.00 0.00 0.00 0.00 0.00 0.00 0.00 0.00 0.00 0.04 0.01 0.00 0.01 0.04 0.13 0.01 0.00 0.00 0.00 0.00 0.00 0.00 0.00
0.00 0.00 0.00 0.00 0.00 0.00 0.00 0.00 0.00 0.00 0.00 0.00 0.00 0.00 0.00 0.00 0.00 0.00 0.00 0.00 0.00 0.00 0.00 0.00 0.00 0.00 0.00 0.00 0.00 0.00 0.00 0.00 0.00 0.00 0.00 0.00 0.04 0.03 0.02 0.00 0.00 0.00 0.00 0.00 0.00
0.00 0.00 0.00 0.00 0.00 0.00 0.00 0.00 0.00 0.00 0.00 0.00 0.00 0.00 0.00 0.00 0.00 0.00 0.00 0.00 0.00 0.00 0.00 0.00 0.00 0.00 0.00 0.00 0.00 0.00 0.00 0.00 0.00 0.00 0.00 0.00 0.00 0.02 0.17 0.05 0.00 0.00 0.00 0.00 0.00
0.00 0.00 0.00 0.00 0.00 0.00 0.00 0.00 0.00 0.00 0.00 0.00 0.00 0.00 0.00 0.00 0.00 0.00 0.00 0.00 0.00 0.00 0.00 0.00 0.00 0.00 0.00 0.00 0.00 0.00 0.01 0.00 0.00 0.00 0.00 0.00 0.00 0.00 0.07 0.04 0.00 0.00 0.00 0.00 0.00
0.00 0.00 0.00 0.00 0.00 0.00 0.00 0.00 0.00 0.00 0.00 0.00 0.00 0.00 0.00 0.00 0.00 0.00 0.00 0.00 0.00 0.00 0.00 0.00 0.00 0.00 0.00 0.00 0.00 0.00 0.00 0.00 0.00 0.00 0.00 0.00 0.00 0.00 0.00 0.00 0.00 0.00 0.00 0.00 0.00
0.00 0.00 0.00 0.00 0.00 0.00 0.00 0.00 0.00 0.00 0.00 0.00 0.00 0.00 0.00 0.00 0.00 0.00 0.00 0.00 0.00 0.00 0.00 0.00 0.00 0.00 0.00 0.00 0.00 0.00 0.00 0.00 0.00 0.00 0.00 0.00 0.00 0.00 0.00 0.00 0.00 0.00 0.00 0.00 0.00
MSLP
1014.08 1013.80 1013.66 1013.45 1013.31 1013.15 1013.07 1012.93 1012.84 1012.70 1012.50 1012.25 1011.94 1011.68 1011.40 1011.08 1010.23 1009.48 1007.47 1005.52 1005.39 1005.72 1006.16 1005.15 1004.60 1004.11 1003.63 1003.46 1002.84 1002.85 1004.39 1007.52 1008.28 1006.24 1004.94 1002.42 1002.52 1002.66 1003.08 1003.69 1003.57 1004.30 1005.60 1006.18 1007.42
1014.11 1013.84 1013.57 1013.38 1013.25 1013.10 1012.97 1012.76 1012.68 1012.58 1012.41 1012.21 1011.96 1011.77 1011.59 1011.35 1009.96 1007.52 1005.31 1005.12 1005.46 1005.72 1005.52 1004.39 1003.49 1003.37 1003.19 1002.87 1002.76 1003.22 1006.48 1008.51 1007.96 1006.99 1005.17 1003.30 1002.79 1003.16 1003.25 1004.17 1004.37 1004.83 1005.71 1006.40 1006.88
1014.18 1013.85 1013.57 1013.33 1013.17 1013.01 1012.88 1012.68 1012.53 1012.39 1012.19 1011.97 1011.82 1011.68 1011.58 1011.28 1008.81 1004.91 1005.09 1005.27 1005.31 1005.51 1004.97 1003.64 1003.19 1003.21 1003.24 1003.49 1003.66 1003.90 1007.50 1008.86 1006.93 1005.99 1004.15 1002.61 1002.73 1002.64 1003.43 1004.57 1005.58 1007.00 1005.81 1006.56 1006.73
1014.22 1013.85 1013.56 1013.25 1013.06 1012.89 1012.76 1012.63 1012.42 1012.27 1012.02 1011.77 1011.66 1011.57 1011.39 1010.46 1006.42 1004.64 1005.05 1005.30 1005.29 1005.22 1004.71 1003.55 1003.40 1003.02 1002.84 1003.80 1003.56 1004.82 1005.35 1006.02 1004.86 1003.89 1002.33 1002.38 1002.40 1002.33 1003.04 1003.96 1004.73 1005.44 1005.82 1007.00 1007.00
1014.20 1013.81 1013.48 1013.22 1012.94 1012.78 1012.59 1012.45 1012.27 1012.10 1011.83 1011.63 1011.60 1011.52 1010.89 1008.43 1004.96 1004.69 1004.97 1005.20 1005.14 1005.14 1004.03 1003.05 1002.70 1002.29 1002.97 1003.15 1003.57 1004.74 1005.35 1004.10 1002.57 1002.11 1002.33 1002.14 1002.23 1002.59 1003.08 1003.81 1004.06 1004.47 1005.60 1006.70 1007.37
1014.18 1013.75 1013.39 1013.09 1012.85 1012.68 1012.46 1012.36 1012.16 1011.93 1011.69 1011.50 1011.51 1011.57 1010.04 1006.05 1003.54 1004.33 1004.32 1004.66 1004.11 1003.94 1002.87 1002.85 1002.80 1002.37 1002.09 1002.56 1003.96 1004.85 1005.66 1003.76 1002.37 1001.76 1001.74 1001.67 1002.33 1002.87 1003.40 1003.79 1003.96 1004.38 1005.74 1006.80 1007.79
1014.17 1013.71 1013.32 1013.02 1012.78 1012.57 1012.35 1012.19 1012.03 1011.77 1011.51 1011.38 1011.42 1010.86 1007.83 1004.13 1002.80 1003.31 1003.56 1003.63 1003.50 1002.57 1002.36 1002.74 1003.20 1002.85 1002.45 1002.74 1003.97 1004.22 1005.30 1003.20 1002.23 1001.76 1001.63 1002.07 1003.00 1002.86 1003.65 1003.85 1004.07 1004.97 1005.97 1006.88 1007.62
1014.13 1013.66 1013.27 1012.91 1012.66 1012.42 1012.21 1012.03 1011.82 1011.54 1011.27 1011.20 1011.23 1010.00 1005.73 1002.96 1002.71 1002.56 1002.75 1002.56 1002.27 1002.32 1002.76 1003.06 1003.17 1002.63 1002.44 1002.63 1004.43 1005.20 1004.44 1003.88 1002.21 1001.98 1001.81 1002.45 1003.33 1003.50 1003.93 1003.93 1004.62 1005.61 1006.44 1007.07 1007.92
1014.18 1013.65 1013.24 1012.88 1012.59 1012.27 1012.01 1011.77 1011.47 1011.21 1011.00 1010.90 1010.31 1008.27 1004.06 1003.40 1002.80 1002.10 1002.13 1002.02 1001.87 1002.37 1002.58 1002.89 1003.46 1004.47 1004.51 1004.29 1005.20 1006.58 1006.59 1005.55 1005.02 1004.28 1001.75 1002.08 1003.10 1003.34 1003.77 1004.02 1005.36 1005.95 1006.59 1008.22 1009.59
1014.15 1013.75 1013.29 1012.88 1012.44 1012.09 1011.79 1011.58 1011.19 1010.92 1010.47 1009.43 1008.14 1006.50 1003.29 1001.94 1001.44 1001.73 1001.81 1001.69 1001.52 1001.76 1002.33 1005.80 1007.15 1006.84 1005.81 1005.52 1005.40 1006.00 1005.90 1004.97 1005.65 1003.92 1002.16 1001.68 1002.25 1002.71 1003.28 1003.80 1005.05 1006.24 1006.96 1007.89 1008.22
1014.12 1013.60 1013.20 1012.82 1012.43 1012.05 1011.26 1010.50 1010.27 1009.20 1007.57 1005.10 1003.88 1003.13 1001.90 1001.34 1001.34 1001.56 1001.77 1001.75 1002.05 1002.52 1005.85 1009.82 1010.94 1009.46 1005.69 1005.51 1005.86 1004.82 1004.89 1003.77 1003.59 1002.46 1001.71 1000.89 1001.64 1002.20 1002.80 1003.05 1004.27 1005.78 1006.38 1006.91 1007.16
1014.00 1013.44 1012.97 1012.60 1012.26 1011.98 1011.73 1008.29 1005.15 1004.20 1004.20 1003.76 1002.55 1001.95 1001.75 1001.34 1001.18 1001.22 1001.46 1001.74 1001.91 1003.02 1006.78 1009.52 1011.50 1009.29 1008.53 1007.72 1007.09 1004.14 1004.42 1004.96 1003.18 1001.24 1001.14 1000.81 1000.85 1001.56 1002.17 1002.45 1003.11 1004.50 1005.29 1006.00 1006.25
1013.75 1013.23 1012.75 1012.39 1012.13 1011.68 1008.95 1006.22 1004.71 1003.93 1002.75 1001.89 1001.94 1001.52 1001.44 1001.29 1000.66 1000.17 1000.95 1001.25 1001.53 1002.64 1006.23 1010.98 1010.08 1009.59 1007.56 1007.04 1005.94 1003.06 1002.77 1003.55 1002.04 1001.34 1000.87 1000.74 1000.98 1001.24 1001.79 1002.06 1002.41 1003.17 1004.14 1005.13 1005.64
1013.43 1012.96 1012.50 1012.16 1011.97 1007.62 1006.19 1004.49 1004.24 1003.86 1002.38 1001.22 1001.14 1000.72 1000.72 1000.85 1000.49 999.99 999.86 1000.78 1001.03 1001.82 1005.89 1008.44 1007.92 1008.01 1005.76 1003.88 1002.57 1001.63 1000.52 1001.26 1001.51 1001.63 1002.31 1002.13 1002.22 1001.70 1001.36 1001.72 1002.05 1002.53 1002.98 1003.71 1004.64
1012.97 1012.49 1012.17 1012.28 1010.13 1005.86 1004.17 1004.12 1004.16 1003.56 1000.88 1000.23 1000.22 1000.28 1000.23 1000.65 999.84 999.96 1000.20 1000.55 1000.84 1001.09 1002.50 1004.12 1004.93 1004.42 1003.00 1000.42 1000.04 999.79 999.93 1001.02 1002.88 1004.05 1004.61 1003.88 1003.86 1001.72 1001.05 1001.14 1001.45 1001.81 1002.23 1002.72 1003.65
1012.45 1012.00 1011.77 1011.28 1009.76 1005.98 1004.50 1004.25 1003.93 1002.57 999.40 999.13 999.65 999.98 1000.26 1000.47 999.85 999.61 1000.11 1000.52 1000.72 1000.91 1000.83 1001.63 1001.98 1001.76 1000.32 999.61 998.96 999.43 1000.61 1002.60 1003.30 1004.43 1005.92 1004.04 1003.88 1001.26 999.89 999.80 1000.37 1001.00 1001.49 1001.94 1002.61
1011.83 1011.44 1011.35 1008.30 1005.44 1004.49 1004.37 1003.99 1002.98 1000.39 998.48 998.36 998.63 999.54 999.73 999.76 999.76 999.23 999.56 999.90 1000.03 1000.00 1000.61 1000.65 1000.09 999.39 998.81 998.36 998.81 1001.14 1003.80 1006.54 1007.04 1006.00 1005.80 1003.57 1002.21 999.84 998.39 997.91 998.77 999.83 1000.53 1001.34 1001.80
1011.16 1010.81 1008.87 1007.66 1005.88 1005.11 1004.36 1003.32 1001.20 998.13 997.79 998.09 998.05 998.56 998.72 998.68 998.74 998.72 998.94 998.87 999.07 999.34 1000.37 1000.18 999.20 999.18 999.40 999.02 998.85 1001.11 1006.23 1008.29 1009.29 1008.48 1007.11 1004.07 1000.62 998.36 997.43 997.10 997.78 998.76 999.87 1000.62 1001.21
1010.40 1008.94 1007.18 1004.79 1005.72 1004.94 1003.97 1002.06 999.51 997.93 997.77 997.50 997.73 997.42 997.57 997.84 998.20 998.05 997.90 997.82 998.25 998.11 997.99 998.09 999.14 999.24 998.88 998.34 998.51 1000.32 1001.94 1004.78 1008.42 1008.48 1009.05 1006.12 1000.86 998.56 997.84 997.80 997.45 997.90 999.13 1000.04 1000.68
1009.26 1006.16 1003.77 1003.65 1004.18 1004.47 1003.29 1000.84 999.17 998.25 998.06 997.51 997.78 997.05 996.61 997.18 997.84 997.42 996.99 996.73 996.73 996.86 996.98 997.47 999.23 998.60 997.55 997.24 997.55 998.77 1000.07 1003.99 1005.20 1006.81 1007.36 1004.93 1003.32 999.93 998.77 998.27 997.78 997.66 998.47 999.39 1000.18
1008.49 1004.43 1003.22 1003.29 1003.65 1003.29 1001.74 999.82 998.36 997.91 998.30 997.83 997.43 997.26 996.73 996.70 997.10 996.84 996.52 996.22 996.32 996.50 996.87 997.23 996.99 997.14 996.95 996.22 996.33 997.74 1000.15 1001.80 1002.50 1005.00 1007.41 1007.02 1003.22 1001.23 1000.19 998.50 998.03 997.98 998.08 998.57 999.43
1007.43 1003.59 1002.73 1003.04 1002.92 1001.71 1000.45 999.08 999.13 998.45 997.95 998.11 997.92 997.79 997.22 996.88 996.79 996.55 996.25 995.89 996.33 996.84 996.76 996.64 996.63 996.01 995.41 994.81 995.39 996.94 999.27 1001.04 1002.62 1003.00 1005.25 1005.84 1003.50 1001.48 1000.75 999.42 998.20 998.32 998.50 998.60 998.83
1008.18 1003.50 1002.16 1002.51 1002.02 1000.93 999.84 998.88 998.48 998.67 998.59 998.16 997.97 997.95 997.63 997.52 997.33 996.76 996.53 995.92 996.52 997.08 997.20 997.14 996.59 995.93 995.19 994.75 994.40 995.43 997.78 998.50 999.45 1000.58 1000.68 1001.66 1002.23 1001.95 1001.62 999.87 999.01 999.13 999.29 999.56 999.58
1008.51 1004.07 1002.16 1002.30 1002.21 1001.54 1000.95 1000.22 999.70 999.34 998.83 999.06 999.10 998.89 998.66 998.19 997.85 997.40 996.82 996.34 996.58 997.17 997.78 997.93 997.20 996.24 995.27 994.42 994.63 995.02 995.32 996.20 996.98 997.63 997.44 998.02 999.96 1001.21 1001.84 1002.25 999.82 999.81 999.93 1000.05 1000.17
1008.93 1006.81 1006.99 1004.40 1002.76 1002.64 1002.62 1002.16 1001.32 1000.76 1000.06 999.71 999.60 999.67 999.52 998.97 998.50 997.80 997.49 996.73 996.49 997.05 997.49 997.61 997.05 996.57 995.63 994.95 994.70 994.88 995.66 996.10 996.86 997.09 996.38 997.15 997.72 999.52 1000.30 999.89 999.07 999.77 1000.09 1000.53 1000.96
1011.83 1011.03 1009.56 1007.43 1005.11 1004.30 1003.43 1002.86 1002.30 1001.89 1002.35 1001.67 1001.09 1000.53 1000.41 1000.03 1000.72 1000.04 999.76 998.65 998.01 997.94 997.09 997.04 996.85 996.70 996.16 995.61 995.03 994.89 995.37 995.48 997.76 996.53 995.21 995.68 995.89 996.21 997.56 998.68 998.39 999.23 1000.00 1000.58 1001.44
1015.09 1013.74 1011.63 1008.46 1006.14 1005.45 1004.99 1005.24 1004.94 1004.56 1004.05 1003.48 1003.20 1002.94 1001.98 1001.15 1001.57 1001.72 1001.30 1000.37 999.53 998.58 997.44 997.04 997.34 996.08 995.63 995.31 994.93 994.69 994.13 994.31 994.91 993.93 993.98 994.09 994.06 994.70 995.70 996.36 997.37 998.51 999.67 1000.33 1001.06
Thickness
5788 5791 5793 5795 5796 5798 5798 5800 5801 5803 5804 5807 5809 5811 5814 5816 5823 5830 5831 5856 5860 5858 5854 5858 5856 5854 5856 5843 5853 5854 5805 5756 5758 5790 5780 5843 5830 5845 5847 5829 5836 5831 5816 5821 5820
5783 5787 5790 5793 5795 5796 5797 5799 5801 5802 5804 5806 5808 5810 5812 5814 5824 5834 5864 5865 5862 5859 5853 5851 5848 5853 5840 5842 5845 5832 5776 5762 5775 5789 5800 5827 5832 5828 5827 5812 5817 5818 5820 5822 5819
5777 5782 5786 5790 5792 5794 5795 5798 5800 5801 5804 5806 5808 5809 5810 5813 5824 5851 5866 5864 5864 5861 5862 5867 5863 5850 5831 5833 5829 5826 5757 5763 5787 5803 5824 5837 5831 5841 5820 5801 5798 5778 5807 5811 5813
5773 5777 5781 5785 5789 5791 5793 5796 5798 5800 5803 5805 5807 5808 5810 5818 5815 5862 5865 5863 5864 5864 5860 5859 5850 5836 5828 5812 5833 5801 5813 5797 5807 5826 5844 5833 5839 5832 5827 5817 5822 5814 5817 5804 5807
5770 5773 5777 5780 5785 5788 5792 5794 5797 5800 5803 5805 5805 5806 5814 5820 5838 5865 5864 5863 5864 5860 5856 5854 5845 5844 5812 5828 5828 5808 5806 5827 5846 5850 5842 5844 5830 5826 5824 5829 5833 5829 5818 5805 5800
5766 5769 5773 5776 5780 5785 5789 5792 5795 5798 5801 5803 5804 5804 5813 5813 5872 5868 5870 5865 5867 5862 5864 5859 5846 5853 5842 5835 5817 5811 5792 5823 5843 5845 5844 5835 5828 5826 5824 5831 5827 5824 5811 5804 5796
5762 5765 5770 5773 5777 5781 5786 5790 5793 5796 5799 5801 5801 5807 5819 5834 5877 5875 5873 5867 5871 5872 5858 5862 5856 5844 5847 5830 5831 5824 5791 5828 5837 5842 5836 5839 5804 5814 5825 5827 5821 5814 5807 5803 5798
5758 5762 5767 5772 5775 5779 5784 5788 5791 5795 5797 5799 5798 5807 5817 5870 5875 5874 5875 5869 5879 5876 5865 5865 5861 5852 5845 5853 5816 5799 5812 5789 5833 5838 5839 5828 5778 5814 5824 5821 5812 5806 5800 5797 5792
5756 5759 5764 5770 5774 5779 5784 5787 5791 5794 5796 5797 5802 5810 5819 5863 5852 5872 5874 5859 5868 5866 5866 5867 5853 5822 5823 5808 5791 5772 5747 5766 5781 5801 5835 5824 5788 5816 5824 5819 5800 5801 5798 5781 5761
5757 5759 5762 5768 5774 5779 5783 5786 5790 5792 5797 5804 5812 5805 5836 5837 5862 5867 5874 5871 5859 5859 5849 5805 5792 5792 5800 5803 5765 5777 5765 5785 5768 5794 5823 5820 5810 5821 5824 5818 5804 5796 5793 5783 5786
5760 5762 5765 5769 5773 5778 5787 5794 5792 5792 5806 5817 5824 5824 5839 5860 5871 5856 5865 5857 5853 5843 5779 5742 5740 5751 5806 5812 5801 5820 5798 5806 5807 5825 5824 5830 5819 5820 5825 5824 5809 5798 5794 5793 5793
5764 5767 5770 5773 5776 5779 5782 5800 5821 5830 5805 5829 5838 5839 5849 5857 5832 5846 5866 5835 5833 5819 5787 5757 5739 5769 5790 5786 5778 5810 5790 5777 5802 5841 5832 5831 5827 5829 5828 5826 5821 5811 5806 5800 5802
5770 5772 5775 5778 5781 5785 5804 5818 5841 5842 5810 5825 5836 5833 5836 5846 5831 5841 5853 5842 5829 5822 5758 5718 5753 5768 5787 5769 5768 5813 5799 5777 5809 5834 5844 5836 5821 5823 5831 5832 5831 5827 5822 5813 5807
5776 5778 5781 5784 5788 5821 5818 5843 5847 5844 5792 5809 5820 5833 5841 5841 5822 5859 5866 5844 5832 5828 5765 5758 5789 5781 5769 5795 5823 5808 5849 5835 5831 5821 5790 5826 5774 5804 5825 5821 5826 5826 5828 5824 5820
5783 5785 5787 5786 5802 5825 5841 5851 5848 5835 5769 5826 5827 5861 5846 5822 5835 5838 5862 5842 5818 5829 5810 5786 5795 5802 5816 5845 5859 5845 5864 5843 5809 5779 5767 5793 5756 5805 5830 5815 5821 5828 5832 5836 5833
5789 5792 5793 5797 5804 5833 5849 5850 5838 5787 5782 5824 5837 5824 5817 5822 5828 5843 5836 5848 5844 5827 5840 5828 5842 5840 5849 5858 5870 5872 5845 5821 5820 5797 5750 5788 5767 5788 5824 5830 5831 5836 5839 5841 5841
5796 5799 5799 5819 5830 5851 5851 5833 5784 5781 5852 5831 5828 5828 5820 5813 5818 5834 5822 5817 5809 5802 5798 5820 5836 5860 5867 5851 5861 5820 5786 5728 5742 5760 5758 5805 5794 5821 5855 5863 5855 5845 5845 5847 5850
5802 5805 5821 5828 5840 5847 5840 5812 5779 5846 5843 5857 5849 5839 5820 5833 5832 5835 5825 5817 5838 5832 5792 5791 5802 5836 5848 5838 5842 5819 5749 5729 5699 5720 5754 5807 5811 5843 5877 5883 5876 5867 5858 5855 5852
5809 5822 5831 5851 5844 5847 5821 5791 5818 5848 5857 5851 5848 5837 5835 5844 5839 5839 5837 5834 5837 5851 5827 5824 5806 5846 5852 5861 5866 5836 5821 5793 5739 5738 5713 5725 5834 5869 5876 5870 5875 5869 5862 5855 5855
5821 5839 5850 5863 5857 5838 5814 5799 5830 5862 5861 5861 5822 5852 5840 5841 5831 5840 5844 5862 5856 5869 5874 5850 5790 5835 5856 5875 5876 5856 5865 5776 5783 5748 5738 5779 5759 5819 5850 5854 5868 5870 5863 5861 5861
5826 5836 5857 5866 5857 5828 5806 5825 5857 5874 5862 5847 5844 5841 5854 5849 5847 5844 5849 5868 5872 5866 5871 5858 5849 5838 5859 5859 5857 5850 5819 5824 5826 5783 5724 5720 5787 5830 5832 5866 5866 5871 5875 5871 5867
5831 5823 5864 5866 5819 5833 5825 5850 5845 5857 5872 5855 5857 5850 5851 5858 5850 5850 5849 5867 5879 5869 5848 5870 5852 5837 5857 5896 5895 5867 5824 5813 5786 5784 5757 5744 5770 5845 5841 5859 5878 5874 5875 5879 5879
5817 5839 5868 5858 5807 5822 5845 5856 5862 5849 5849 5852 5849 5857 5864 5848 5834 5854 5858 5887 5877 5862 5848 5857 5842 5826 5841 5871 5893 5872 5848 5846 5837 5832 5826 5781 5790 5833 5835 5859 5875 5867 5868 5869 5872
5812 5816 5842 5843 5839 5826 5822 5827 5830 5855 5851 5850 5841 5847 5840 5837 5853 5843 5853 5874 5877 5866 5853 5855 5839 5834 5825 5850 5869 5858 5875 5874 5867 5837 5849 5845 5824 5819 5805 5791 5863 5863 5864 5865 5867
5803 5800 5795 5795 5816 5818 5816 5814 5812 5815 5842 5847 5834 5832 5827 5818 5830 5840 5850 5857 5875 5856 5859 5851 5823 5838 5852 5865 5871 5867 5854 5854 5849 5847 5847 5845 5846 5823 5810 5824 5868 5866 5863 5859 5857
5765 5760 5773 5781 5805 5801 5803 5804 5808 5813 5809 5810 5811 5823 5825 5814 5802 5803 5815 5831 5834 5848 5852 5858 5825 5837 5828 5850 5859 5853 5859 5847 5822 5829 5869 5861 5854 5879 5867 5856 5870 5866 5861 5855 5851
5742 5750 5757 5772 5791 5787 5785 5783 5783 5793 5801 5808 5797 5797 5803 5814 5817 5817 5822 5831 5835 5830 5837 5840 5825 5835 5818 5849 5849 5830 5864 5871 5851 5879 5877 5856 5881 5889 5875 5873 5869 5867 5862 5857 5854